sat.trackr.live / text

‹ back to catalog

ONEWEB-0371

NORAD 49297 · 2021-090U

PAYLOAD ACTIVE UNKNOWN

§ Identity

Operator
Country
UK
Launch date
2021-10-14
Launch site
VOSTO
Launch vehicle
Mass (kg)
RCS (m²)

Purposes: comms

External: N2YO · Heavens-Above · Gunter

§ Orbital elements

Epoch: 2026-05-24T23:45:29.711808Z

Period
109.11 min
Inclination
87.9154°
Eccentricity
0.0001690
Mean motion
13.19726879 rev/d
Perigee alt
1,184.5 km
Apogee alt
1,187.0 km
Semi-major
7,563.9 km
B*
-6.8128e-5
RAAN
309.5899°
Arg perigee
94.6630°
Mean anomaly
265.4696°
Rev number
22,339

§ Raw data

ONEWEB-03711 49297U 21090U   26144.98992722 -.00000014  00000+0 -68128-4 0  99932 49297  87.9154 309.5899 0001690  94.6630 265.4696 13.19726879223394

JSON: /api/v1/satellites/49297 · /tle

For live sub-satellite position, see the globe view (requires WebGL).

§ Visibility from observer

Set your observer location to see the next 7 days of passes ≥ 10°. The values pass through the URL so the page stays shareable.

No JS? Fill the form by hand. The geolocation button needs JavaScript.